Weather History for Wooster, OH

Change the Weather History Date:

Monday, April 8, 2013

  Actual Average Record
Temperature  
Mean Temperature 54 °F -  
Max Temperature 71 °F 55 °F 79 °F (2001)
Min Temperature 37 °F 35 °F 23 °F (1997)
Degree Days  
Heating Degree Days 12    
Growing Degree Days 4 (Base 50)    
Moisture  
Dew Point 43 °F    
Average Humidity 65    
Maximum Humidity 86    
Minimum Humidity 44    
Precipitation  
Precipitation 0.00 in - - ()
Sea Level Pressure  
Sea Level Pressure 29.96 in    
Wind  
Wind Speed 9 mph (South)    
Max Wind Speed 22 mph    
Max Gust Speed 36 mph    
Visibility 9 miles    
Events      
Averages and records for this station are not official NWS values.
T = Trace of Precipitation, MM = Missing Value Source: NWS Daily Summary

Daily Weather History Graph

Daily Weather History Graph

Search for Another Location

Airport:

Trip Planner

Search our weather history database for the weather conditions in past years. The results will help you decide how hot, cold, wet, or windy it might be!

Date:

Astronomy

Apr. 08, 2013 Rise Set
Actual Time 6:59 AM EDT 8:00 PM EDT
Civil Twilight 6:31 AM EDT 8:28 PM EDT
Nautical Twilight 5:57 AM EDT 9:01 PM EDT
Astronomical Twilight 5:23 AM EDT 9:36 PM EDT
Moon 5:49 AM EDT (4/8) 6:32 PM EDT (4/8)
Length of Visible Light 13h 56m
Length of Day
13h 00m
Waning Crescent, 3% of the Moon is Illuminated
Apr 8
Waning Crescent
Apr 10
New
Apr 18
First Quarter
Apr 25
Full
May 2
Last Quarter

Hourly Weather History & Observations

Time (EDT) Temp. Windchill Dew Point Humidity Pressure Visibility Wind Dir Wind Speed Gust Speed Precip Events Conditions
12:56 AM 41.0 °F 37.1 °F 35.1 °F 79% 30.04 in 9.0 mi NE 5.8 mph - N/A   Clear
1:56 AM 39.0 °F 35.7 °F 34.0 °F 82% 30.04 in 8.0 mi ENE 4.6 mph - N/A   Partly Cloudy
2:56 AM 37.9 °F 33.5 °F 33.1 °F 83% 30.03 in 7.0 mi East 5.8 mph - N/A   Partly Cloudy
3:56 AM 39.0 °F 34.8 °F 34.0 °F 82% 30.02 in 8.0 mi East 5.8 mph - N/A   Clear
4:56 AM 37.0 °F 34.5 °F 33.1 °F 86% 30.02 in 7.0 mi ESE 3.5 mph - N/A   Clear
5:56 AM 39.0 °F 34.0 °F 34.0 °F 82% 30.00 in 8.0 mi East 6.9 mph - N/A   Clear
6:56 AM 37.9 °F 32.1 °F 34.0 °F 86% 30.01 in 6.0 mi East 8.1 mph - N/A   Clear
7:56 AM 41.0 °F 37.1 °F 36.0 °F 82% 30.03 in 4.0 mi ESE 5.8 mph - N/A   Haze
8:56 AM 46.0 °F 41.4 °F 39.0 °F 76% 30.02 in 6.0 mi SE 9.2 mph - N/A   Haze
9:56 AM 52.0 °F - 42.1 °F 69% 30.00 in 7.0 mi SE 6.9 mph - N/A   Overcast
10:56 AM 55.9 °F - 45.0 °F 67% 29.99 in 9.0 mi SSE 5.8 mph - N/A   Mostly Cloudy
11:56 AM 64.0 °F - 46.9 °F 54% 29.95 in 10.0 mi South 11.5 mph - N/A   Partly Cloudy
12:56 PM 68.0 °F - 48.0 °F 49% 29.92 in 10.0 mi SSW 15.0 mph 21.9 mph N/A   Scattered Clouds
1:56 PM 70.0 °F - 46.9 °F 44% 29.90 in 10.0 mi SW 19.6 mph 27.6 mph N/A   Mostly Cloudy
2:56 PM 68.0 °F - 46.0 °F 45% 29.89 in 10.0 mi SW 18.4 mph 31.1 mph N/A   Overcast
3:56 PM 68.0 °F - 46.9 °F 47% 29.88 in 10.0 mi SW 18.4 mph 31.1 mph N/A   Overcast
4:56 PM 68.0 °F - 48.0 °F 49% 29.88 in 10.0 mi SW 19.6 mph 25.3 mph 0.00 in   Mostly Cloudy
5:56 PM 70.0 °F - 48.9 °F 47% 29.86 in 10.0 mi SW 20.7 mph 35.7 mph N/A   Scattered Clouds
6:56 PM 69.1 °F - 48.9 °F 49% 29.87 in 10.0 mi SW 21.9 mph 26.5 mph N/A   Overcast
7:56 PM 66.9 °F - 48.9 °F 52% 29.88 in 10.0 mi SW 15.0 mph - N/A   Overcast
8:56 PM 66.9 °F - 50.0 °F 54% 29.91 in 10.0 mi WSW 13.8 mph - N/A   Overcast
9:56 PM 64.9 °F - 50.0 °F 58% 29.92 in 10.0 mi SW 16.1 mph - N/A   Partly Cloudy
10:56 PM 64.9 °F - 51.1 °F 61% 29.94 in 10.0 mi WSW 16.1 mph 24.2 mph N/A   Mostly Cloudy
11:56 PM 64.0 °F - 52.0 °F 65% 29.96 in 10.0 mi WSW 11.5 mph - N/A   Mostly Cloudy